Location: Chilton Park
(37.7711°N, 100.0276°W)
Time: 22:07:19
(UTC+00:00)

Cosmos 1898 Rocket - Pass Details

Date: 06 July 2022
Orbit: 753 x 783 km, 74.0° (Epoch: 16 August)

Event Time Altitude Azimuth Distance (km) Brightness Sun altitude
Rises 07:33:55 0° 345° (NNW) 3,212 7.6 -28.5°
Reaches altitude 10° 07:36:19 10° 349° (N) 2,284 6.7 -28.4°
Maximum altitude 07:41:26 60° 70° (ENE) 862 3.8 -28.1°
Enters shadow 07:41:33 60° 76° (ENE) 863 3.8 -28.1°
